Retour au catalogue

SL-16 DEB

ActifLEO
NORAD 24299·DEBRIS·🇷🇺 Russia

Lancé Sep 4, 1996 depuis Baikonur Cosmodrome

Loading…

Prochains Passages (prochaines 24 heures)

TLE

FraisSource: Space-Track

Époque: Sep 14, 2026, 09:58 UTC

1 24299U 96051C   26257.41548551  .00000028  00000-0  65095-4 0  9991
2 24299  71.0343 260.8898 0191162 248.3404 109.7245 13.75868208506997

Suivez SL-16 DEB en temps réel avec AllMySat

Download on the App Store